Location: Agadir Irigdalene
(31.2522°N, 8.7797°W)
Time: 06:01:51
(UTC+00:00)

Lacrosse 4 Rocket - Pass Details

Date: 01 December 2020
Orbit: 537 x 620 km, 68.0° (Epoch: 25 January)

Event Time Altitude Azimuth Distance (km) Brightness Sun altitude
Rises 19:16:19 0° 211° (SSW) 2,672 5.5 -21.8°
Reaches altitude 10° 19:18:31 10° 216° (SW) 1,787 4.6 -22.3°
Maximum altitude 19:22:25 56° 295° (WNW) 643 1.8 -23.1°
Enters shadow 19:23:17 45° 342° (NNW) 740 1.9 -23.3°
